Weather History for Havre, MT

Change the Weather History Date:

Wednesday, January 16, 2013

  Actual Average Record
Temperature  
Mean Temperature 26 °F 18 °F  
Max Temperature 38 °F 29 °F 60 °F (1973)
Min Temperature 14 °F 7 °F -34 °F (1982)
Degree Days  
Heating Degree Days 39 47  
Month to date heating degree days 707 763  
Since 1 July heating degree days 4077 4229  
Cooling Degree Days 0 0  
Month to date cooling degree days 0 0  
Year to date cooling degree days 0 0  
Moisture  
Dew Point 22 °F    
Average Humidity 74    
Maximum Humidity 88    
Minimum Humidity 59    
Precipitation  
Precipitation 0.00 in 0.01 in 0.33 in (1883)
Month to date precipitation 0.87 0.20  
Year to date precipitation 0.87 0.20  
Snow  
Snow 0.00 in 0.30 in 3.60 in (1994)
Month to date snowfall 15.0 4.3  
Since 1 July snowfall 40.0 19.3  
Snow Depth 10.00 in    
Sea Level Pressure  
Sea Level Pressure 30.18 in    
Wind  
Wind Speed 11 mph (WSW)    
Max Wind Speed 25 mph    
Max Gust Speed 30 mph    
Visibility 10 miles    
Events      
T = Trace of Precipitation, MM = Missing Value Source: NWS Daily Summary

Daily Weather History Graph

Daily Weather History Graph

Search for Another Location

Airport:

Trip Planner

Search our weather history database for the weather conditions in past years. The results will help you decide how hot, cold, wet, or windy it might be!

Date:

Astronomy

Jan. 16, 2013 Rise Set
Actual Time 8:04 AM MST 4:53 PM MST
Civil Twilight 7:29 AM MST 5:28 PM MST
Nautical Twilight 6:50 AM MST 6:07 PM MST
Astronomical Twilight 6:13 AM MST 6:45 PM MST
Moon 10:11 AM MST (1/16) 11:22 PM MST (1/16)
Length of Visible Light 9h 59m
Length of Day
8h 48m
Waxing Crescent, 29% of the Moon is Illuminated
Jan 16
Waxing Crescent
Jan 18
First Quarter
Jan 26
Full
Feb 3
Last Quarter
Feb 10
New

Hourly Weather History & Observations

Time (MST) Temp. Windchill Dew Point Humidity Pressure Visibility Wind Dir Wind Speed Gust Speed Precip Events Conditions
12:53 AM 35.1 °F 22.7 °F 25.0 °F 67% 29.98 in 10.0 mi SW 25.3 mph - N/A   Mostly Cloudy
1:53 AM 36.0 °F 25.0 °F 26.1 °F 67% 29.98 in 10.0 mi SW 20.7 mph - N/A   Overcast
2:53 AM 37.9 °F 28.9 °F 24.1 °F 57% 30.00 in 10.0 mi WSW 16.1 mph 23.0 mph N/A   Clear
3:53 AM 37.0 °F 27.7 °F 25.0 °F 62% 30.01 in 10.0 mi WSW 16.1 mph - N/A   Mostly Cloudy
4:53 AM 37.0 °F 27.4 °F 25.0 °F 62% 30.01 in 10.0 mi WSW 17.3 mph - N/A   Scattered Clouds
5:53 AM 37.9 °F 30.5 °F 25.0 °F 60% 30.04 in 10.0 mi SW 11.5 mph - N/A   Mostly Cloudy
6:53 AM 35.1 °F 27.9 °F 24.1 °F 64% 30.08 in 10.0 mi WSW 9.2 mph - N/A   Clear
7:53 AM 33.1 °F 26.9 °F 24.1 °F 70% 30.12 in 10.0 mi West 6.9 mph - N/A   Scattered Clouds
8:53 AM 35.1 °F 26.9 °F 24.1 °F 64% 30.14 in 10.0 mi WSW 11.5 mph - N/A   Clear
9:53 AM 36.0 °F 27.1 °F 24.1 °F 62% 30.18 in 10.0 mi WSW 13.8 mph - N/A   Clear
10:53 AM 33.1 °F 26.9 °F 25.0 °F 72% 30.19 in 10.0 mi SW 6.9 mph - N/A   Clear
11:53 AM 35.1 °F 27.4 °F 25.0 °F 67% 30.18 in 10.0 mi West 10.4 mph - N/A   Clear
12:53 PM 37.4 °F 30.8 °F 24.8 °F 60% 30.12 in 10.0 mi WSW 9.2 mph - N/A   Clear
1:53 PM 37.0 °F 31.0 °F 26.1 °F 65% 30.19 in 10.0 mi WSW 8.1 mph - N/A   Clear
2:53 PM 35.1 °F 27.9 °F 27.0 °F 72% 30.21 in 10.0 mi SW 9.2 mph - N/A   Clear
3:53 PM 33.1 °F 25.5 °F 27.0 °F 78% 30.24 in 10.0 mi SW 9.2 mph - N/A   Clear
4:53 PM 30.9 °F 23.5 °F 24.1 °F 76% 30.26 in 10.0 mi SW 8.1 mph - N/A   Clear
5:53 PM 28.0 °F 21.7 °F 21.9 °F 78% 30.27 in 10.0 mi WSW 5.8 mph - N/A   Clear
6:53 PM 24.1 °F 14.4 °F 19.9 °F 84% 30.30 in 10.0 mi SW 9.2 mph - N/A   Clear
7:53 PM 23.0 °F 15.8 °F 19.0 °F 85% 30.33 in 10.0 mi WSW 5.8 mph - N/A   Clear
8:53 PM 21.0 °F 12.4 °F 17.1 °F 85% 30.34 in 10.0 mi WSW 6.9 mph - N/A   Clear
9:53 PM 19.0 °F 13.9 °F 16.0 °F 88% 30.35 in 10.0 mi West 3.5 mph - N/A   Clear
10:53 PM 15.1 °F 4.2 °F 12.0 °F 88% 30.37 in 10.0 mi SW 8.1 mph - N/A   Clear
11:53 PM 15.1 °F 7.7 °F 12.0 °F 88% 30.36 in 10.0 mi West 4.6 mph - N/A   Clear